User: anonymous   Login
Location: Caltech
(34.1382°N, 118.1253°W)
Time: 16:10:03
(UTC-07:00)
Language:

NOSS 3-2 (A) - Orbit

View from above orbital plane
View from above orbital plane
View from above satellite
View from above satellite

Ground track
Ground track

The orbit data is extracted from the following two-line orbital elements,

1 28095U 03054A   15157.11413861 0.00000000  00000-0  00000-0 0    03
2 28095  63.4280  45.8844 0240000 358.0802   1.9198 13.41314762    04
Epoch (UTC): 06 June 2015 02:44:21
Eccentricity: 0.0240000
inclination: 63.4280°
perigee height: 925 km
apogee height: 1284 km
right ascension of ascending node: 45.8844°
argument of perigee: 358.0802°
revolutions per day: 13.41314762
mean anomaly at epoch: 1.9198°
orbit number at epoch: 0

The dashed part of the orbit path shows where the satellite is in the earth's shadow,  

DLR